W3OW Weather Reports


time (UTC)temp
C
wind
direction
speed
KPH
gust
KPH
rain 1hr
cm
rain 24hr
cm
rain mn
cm
humidity
%
barometer
mb
20260509184517 20 165 3.2 12.9 0.00 0.00 0.00 48 1009.4
20260509183057 20 99 3.2 9.7 0.00 0.00 0.00 49 1009.5
20260509181538 20 155 3.2 11.3 0.00 0.00 0.00 50 1009.9
20260509180016 20 98 3.2 14.5 0.00 0.00 0.00 53 1010.0
20260509174558 18 75 3.2 6.4 0.00 0.00 0.00 56 1010.2
20260509173037 18 24 1.6 8.0 0.00 0.00 0.00 57 1010.8
20260509171519 18 333 0.0 12.9 0.00 0.00 0.00 58 1010.9
20260509170101 18 113 3.2 6.4 0.00 0.00 0.00 55 1011.2
20260509170007 18 77 3.2 6.4 0.00 0.00 0.00 55 1011.1
20260509164545 18 295 1.6 8.0 0.00 0.00 0.00 53 1011.0
20260509163026 18 98 3.2 11.3 0.00 0.00 0.00 54 1010.7
20260509161503 18 25 1.6 8.0 0.00 0.00 0.00 54 1010.8
20260509160046 18 76 1.6 6.4 0.00 0.00 0.00 55 1011.0
20260509154524 17 63 3.2 12.9 0.00 0.00 0.00 54 1011.0
20260509153020 17 15 3.2 12.9 0.00 0.00 0.00 56 1011.0
20260509151555 17 60 3.2 9.7 0.00 0.00 0.00 55 1011.2
20260509150037 16 55 1.6 4.8 0.00 0.00 0.00 56 1011.3
20260509144522 16 157 1.6 4.8 0.00 0.00 0.00 57 1011.5
20260509143047 15 117 0.0 1.6 0.00 0.00 0.00 60 1011.6
20260509141531 15 195 0.0 8.0 0.00 0.00 0.00 61 1011.8
20260509140005 15 213 0.0 1.6 0.00 0.00 0.00 62 1011.4
20260509134606 15 243 0.0 4.8 0.00 0.00 0.00 62 1011.3
20260509133024 15 210 0.0 1.6 0.00 0.00 0.00 63 1011.3
20260509131511 14 215 0.0 6.4 0.00 0.00 0.00 64 1011.5
20260509130056 14 115 1.6 8.0 0.00 0.00 0.00 67 1011.5
20260509124532 13 217 1.6 6.4 0.00 0.00 0.00 70 1011.5
20260509123011 13 34 1.6 3.2 0.00 0.00 0.00 71 1011.2
20260509121608 13 215 0.0 4.8 0.00 0.00 0.00 71 1011.6
20260509120033 13 200 0.0 3.2 0.00 0.00 0.00 70 1011.4
20260509114527 12 118 0.0 3.2 0.00 0.00 0.00 69 1011.3
20260509113052 12 39 0.0 3.2 0.00 0.00 0.00 70 1011.3
20260509111545 12 336 0.0 1.6 0.00 0.00 0.00 70 1011.2
20260509110012 11 228 0.0 1.6 0.00 0.00 0.00 72 1011.1
20260509104554 11 228 0.0 1.6 0.00 0.00 0.00 71 1011.0
20260509103047 11 228 0.0 1.6 0.00 0.00 0.00 69 1010.7
20260509101532 11 228 0.0 0.0 0.00 0.00 0.00 70 1010.8
20260509100059 12 139 0.0 1.6 0.00 0.00 0.00 67 1010.8
20260509100004 12 139 0.0 1.6 0.00 0.00 0.00 66 1010.8
20260509094547 12 283 0.0 1.6 0.00 0.00 0.00 65 1010.7
20260509093032 12 283 0.0 1.6 0.00 0.00 0.00 65 1010.7
20260509091521 12 217 0.0 3.2 0.00 0.00 0.00 64 1010.8
20260509084546 12 229 0.0 4.8 0.00 0.00 0.00 64 1010.9
20260509083028 12 193 0.0 4.8 0.00 0.00 0.00 64 1011.0
20260509081506 12 193 1.6 6.4 0.00 0.00 0.00 64 1011.0
20260509080049 12 191 3.2 8.0 0.00 0.00 0.00 64 1010.9
20260509074542 12 210 1.6 6.4 0.00 0.00 0.00 66 1011.0
20260509073014 12 176 1.6 3.2 0.00 0.00 0.00 66 1011.1
20260509071600 12 152 0.0 6.4 0.00 0.00 0.00 66 1011.0
20260509070039 12 224 1.6 8.0 0.00 0.00 0.00 66 1011.1
20260509064520 11 220 0.0 4.8 0.00 0.00 0.00 67 1011.2
20260509063004 11 226 0.0 4.8 0.00 0.00 0.00 69 1011.3
20260509061544 10 173 0.0 0.0 0.00 0.00 0.00 73 1011.4
20260509060036 10 174 0.0 0.0 0.00 0.00 0.00 77 1011.5
20260509054508 10 137 0.0 0.0 0.00 0.00 0.00 79 1011.7
20260509053050 10 136 0.0 0.0 0.00 0.00 0.00 77 1011.7
20260509051525 11 136 0.0 0.0 0.00 0.00 0.00 72 1011.7
20260509050006 10 286 0.0 1.6 0.00 0.00 0.00 77 1011.7
20260509044540 10 286 0.0 0.0 0.00 0.00 0.00 76 1011.9
20260509043020 9 286 0.0 1.6 0.00 0.00 0.00 80 1011.8
20260509041618 8 286 0.0 0.0 0.00 0.00 0.00 80 1011.8
20260509041503 8 286 0.0 0.0 0.00 0.00 0.00 80 1011.8
20260509040018 9 286 0.0 0.0 0.00 0.00 0.00 80 1011.9
20260509034556 10 286 0.0 0.0 0.00 0.00 0.00 79 1011.9
20260509033039 10 286 0.0 0.0 0.00 0.00 0.00 78 1011.9
20260509031534 10 286 0.0 1.6 0.00 0.00 0.00 78 1012.0
20260509030005 10 286 0.0 0.0 0.00 0.00 0.00 78 1012.1
20260509024543 11 286 0.0 0.0 0.00 0.00 0.00 75 1012.2
20260509023034 11 286 0.0 0.0 0.00 0.00 0.00 73 1012.2
20260509021512 12 286 0.0 1.6 0.00 0.00 0.00 71 1012.2
20260509020059 12 296 0.0 0.0 0.00 0.00 0.00 68 1012.1
20260509014541 13 296 0.0 1.6 0.00 0.00 0.00 67 1012.2
20260509013037 13 296 0.0 1.6 0.00 0.00 0.00 60 1012.2
20260509011509 14 294 0.0 1.6 0.00 0.00 0.00 56 1012.1
20260509010054 15 294 0.0 0.0 0.00 0.00 0.00 53 1012.0
20260509004536 16 294 0.0 0.0 0.00 0.00 0.00 51 1011.9
20260509003018 16 295 0.0 1.6 0.00 0.00 0.00 50 1011.8
20260509001557 17 296 0.0 1.6 0.00 0.00 0.00 51 1011.7
20260509000037 17 4 0.0 0.0 0.00 0.00 0.00 43 1011.7
20260508234530 17 4 0.0 0.0 0.00 0.00 0.00 46 1011.5
20260508233010 18 4 0.0 0.0 0.00 0.00 0.00 41 1011.4
20260508231551 18 4 0.0 1.6 0.00 0.00 0.00 40 1011.3
20260508230041 19 4 0.0 3.2 0.00 0.00 0.00 40 1011.2
20260508224523 20 6 0.0 6.4 0.00 0.00 0.00 36 1011.3
20260508223055 20 302 1.6 11.3 0.00 0.00 0.00 35 1011.2
20260508221537 20 267 1.6 6.4 0.00 0.00 0.00 35 1011.1
20260508220026 20 309 3.2 9.7 0.00 0.00 0.00 36 1011.3
20260508214557 20 276 1.6 8.0 0.00 0.00 0.00 36 1011.3
20260508213043 20 308 4.8 14.5 0.00 0.00 0.00 33 1011.4
20260508211535 21 302 8.0 16.1 0.00 0.00 0.00 32 1011.3
20260508210059 20 293 4.8 12.9 0.00 0.00 0.00 33 1011.3
20260508210004 20 295 4.8 12.9 0.00 0.00 0.00 32 1011.3
20260508204548 20 288 8.0 14.5 0.00 0.00 0.00 33 1011.4
20260508203022 20 284 8.0 16.1 0.00 0.00 0.00 33 1011.4
20260508201503 20 287 12.9 24.1 0.00 0.00 0.00 31 1011.6
20260508200052 21 292 8.0 17.7 0.00 0.00 0.00 30 1011.7
20260508194530 20 297 11.3 24.1 0.00 0.00 0.00 33 1011.8
20260508193150 20 259 12.9 30.6 0.00 0.00 0.00 32 1012.0
20260508193007 20 290 12.9 30.6 0.00 0.00 0.00 32 1012.1
20260508191545 20 292 16.1 29.0 0.00 0.00 0.00 31 1012.4
20260508190024 20 302 12.9 25.7 0.00 0.00 0.00 37 1012.6